tititudorancea.com
Station Historical Data
Daily Summary for October 21, 2018 Units:  Metric    English   Both
« Previous Day
Next Day »
Daily Weekly Monthly Yearly Custom
  High: Low: Average:
Temperature: -17.8 °C 2.6 °C 9.7 °C
Dew Point: -17.8 °C 1.6 °C 5.7 °C
Humidity: Humidity % 46 % 78 %
Wind Speed: 0 km/h 0 km/h 2.7 km/h
Wind Gust: 0 km/h - -
Wind:- - South
Pressure: 0 hPa 1014.4 hPa -
Precipitation: 0 mm    
Historical Graphs
 
 
Ararat weather Find more about Weather in Ararat, AU


 



 


Tabular Data for October 21, 2018
Time Temperature Dew Point Pressure Wind Wind Speed Wind Gust Humidity Rainfall Rate (Hourly)
-17.8 °C -17.8 °C 0 hPa Calm     Humidity % 0 mm
00:04 7.1 °C 5.5 °C 1019.9 hPa Calm     90 % 0 mm
00:09 7.2 °C 5.6 °C 1019.9 hPa Calm     90 % 0 mm
00:14 7.2 °C 5.7 °C 1019.9 hPa Calm     90 % 0 mm
00:19 7.3 °C 5.7 °C 1019.9 hPa Calm     90 % 0 mm
00:24 7.4 °C 5.8 °C 1019.9 hPa Calm     90 % 0 mm
00:29 7.4 °C 5.9 °C 1019.9 hPa Calm     90 % 0 mm
00:34 7.5 °C 5.9 °C 1019.9 hPa Calm     90 % 0 mm
00:39 7.6 °C 6 °C 1019.9 hPa Calm     90 % 0 mm
00:44 7.6 °C 6.1 °C 1019.9 hPa Calm     90 % 0 mm
00:49 7.7 °C 6.2 °C 1019.9 hPa Calm     90 % 0 mm
00:54 7.7 °C 6.2 °C 1019.9 hPa Calm     90 % 0 mm
00:59 7.7 °C 6.2 °C 1019.9 hPa Calm     90 % 0 mm
01:04 7.7 °C 6.2 °C 1019.5 hPa Calm     90 % 0 mm
01:09 7.7 °C 6.1 °C 1019.5 hPa Calm     90 % 0 mm
01:14 7.6 °C 5.9 °C 1019.5 hPa Calm     89 % 0 mm
01:19 7.4 °C 5.7 °C 1019.5 hPa Calm     89 % 0 mm
01:24 7.3 °C 5.7 °C 1019.5 hPa Calm     89 % 0 mm
01:29 7.2 °C 5.6 °C 1019.5 hPa Calm     89 % 0 mm
01:34 7.1 °C 5.4 °C 1019.5 hPa Calm     89 % 0 mm
01:39 7 °C 5.4 °C 1019.5 hPa Calm     90 % 0 mm
01:44 6.8 °C 5.3 °C 1019.5 hPa Calm     90 % 0 mm
01:49 6.7 °C 5.2 °C 1019.2 hPa Calm     90 % 0 mm
01:54 6.7 °C 5.2 °C 1019.2 hPa Calm     90 % 0 mm
01:59 6.8 °C 5.4 °C 1019.2 hPa Calm     91 % 0 mm
02:04 6.8 °C 5.4 °C 1019.2 hPa Calm     91 % 0 mm
02:05 7.7 °C 6.2 °C 1019.5 hPa Calm   11.3 km/h 90 % 0 mm
02:09 6.8 °C 5.4 °C 1019.2 hPa Calm     91 % 0 mm
02:10 7.7 °C 6.2 °C 1019.5 hPa Calm     90 % 0 mm
02:14 6.7 °C 5.3 °C 1019.2 hPa Calm     91 % 0 mm
02:15 7.7 °C 6.1 °C 1019.5 hPa Calm     90 % 0 mm
02:19 6.7 °C 5.3 °C 1019.2 hPa Calm     91 % 0 mm
02:20 7.6 °C 5.8 °C 1019.5 hPa Calm     89 % 0 mm
02:24 6.6 °C 5.2 °C 1019.2 hPa Calm     91 % 0 mm
02:25 7.4 °C 5.7 °C 1019.5 hPa Calm     89 % 0 mm
02:29 6.5 °C 5.1 °C 1019.2 hPa Calm     91 % 0 mm
02:30 7.3 °C 5.7 °C 1019.5 hPa Calm     90 % 0 mm
02:34 6.5 °C 5.1 °C 1019.2 hPa Calm     91 % 0 mm
02:35 7.2 °C 5.5 °C 1019.5 hPa Calm     89 % 0 mm
02:39 6.4 °C 5.1 °C 1018.8 hPa Calm     91 % 0 mm
02:40 7.1 °C 5.5 °C 1019.5 hPa Calm     90 % 0 mm
02:44 6.4 °C 5 °C 1018.8 hPa Calm     91 % 0 mm
02:45 6.9 °C 5.3 °C 1019.5 hPa Calm     89 % 0 mm
02:49 6.3 °C 4.9 °C 1018.8 hPa Calm     91 % 0 mm
02:50 6.8 °C 5.3 °C 1019.5 hPa Calm     90 % 0 mm
02:54 6.2 °C 4.9 °C 1018.8 hPa Calm     91 % 0 mm
02:55 6.7 °C 5.2 °C 1019.2 hPa Calm     90 % 0 mm
02:59 6.1 °C 4.8 °C 1018.8 hPa Calm     91 % 0 mm
03:00 6.8 °C 5.4 °C 1019.2 hPa Calm     91 % 0 mm
03:04 6 °C 4.7 °C 1018.8 hPa Calm     91 % 0 mm
03:05 6.8 °C 5.4 °C 1019.2 hPa Calm     91 % 0 mm
03:09 6 °C 4.8 °C 1018.8 hPa Calm     92 % 0 mm
03:10 6.8 °C 5.4 °C 1019.2 hPa Calm     91 % 0 mm
03:14 6 °C 4.8 °C 1018.8 hPa Calm     92 % 0 mm
03:15 6.8 °C 5.4 °C 1019.2 hPa Calm     91 % 0 mm
03:19 5.9 °C 4.6 °C 1018.8 hPa Calm     91 % 0 mm
03:20 6.7 °C 5.3 °C 1019.2 hPa Calm     91 % 0 mm
03:24 5.7 °C 4.4 °C 1018.8 hPa Calm     91 % 0 mm
03:25 6.7 °C 5.3 °C 1019.2 hPa Calm     91 % 0 mm
03:29 5.6 °C 4.3 °C 1018.8 hPa Calm     91 % 0 mm
03:30 6.5 °C 5.1 °C 1019.2 hPa Calm     91 % 0 mm
03:34 5.5 °C 4.2 °C 1018.8 hPa Calm     91 % 0 mm
03:35 6.5 °C 5.1 °C 1019.2 hPa Calm     91 % 0 mm
03:39 5.3 °C 4 °C 1018.8 hPa Calm     91 % 0 mm
03:40 6.4 °C 5.1 °C 1019.2 hPa Calm     91 % 0 mm
03:44 5.2 °C 3.9 °C 1018.8 hPa Calm     91 % 0 mm
03:45 6.4 °C 5.1 °C 1018.8 hPa Calm     91 % 0 mm
03:49 5.1 °C 3.7 °C 1018.8 hPa Calm     91 % 0 mm
03:50 6.4 °C 5 °C 1018.8 hPa Calm     91 % 0 mm
03:54 4.9 °C 4.5 °C 1018.8 hPa Calm     97 % 0 mm
03:55 6.3 °C 4.9 °C 1018.8 hPa Calm     91 % 0 mm
03:59 4.8 °C 3.6 °C 1018.8 hPa Calm     92 % 0 mm
04:00 6.2 °C 4.8 °C 1018.8 hPa Calm     91 % 0 mm
04:04 4.7 °C 3.6 °C 1018.8 hPa Calm     92 % 0 mm
04:05 6.1 °C 4.7 °C 1018.8 hPa Calm     91 % 0 mm
04:09 4.7 °C 3.5 °C 1018.8 hPa Calm     92 % 0 mm
04:10 6 °C 4.7 °C 1018.8 hPa Calm     91 % 0 mm
04:14 4.6 °C 3.4 °C 1018.8 hPa Calm     92 % 0 mm
04:15 6 °C 4.8 °C 1018.8 hPa Calm     92 % 0 mm
04:19 4.4 °C 3.3 °C 1018.8 hPa Calm     92 % 0 mm
04:20 6 °C 4.7 °C 1018.8 hPa Calm     91 % 0 mm
04:24 4.3 °C 3.2 °C 1018.8 hPa Calm     92 % 0 mm
04:25 5.8 °C 4.5 °C 1018.8 hPa Calm     91 % 0 mm
04:29 4.3 °C 3.2 °C 1018.8 hPa Calm     92 % 0 mm
04:30 5.7 °C 4.4 °C 1018.8 hPa Calm     91 % 0 mm
04:34 4.3 °C 3.1 °C 1018.8 hPa Calm     92 % 0 mm
04:35 5.6 °C 4.2 °C 1018.8 hPa Calm     91 % 0 mm
04:39 4.2 °C 3 °C 1018.8 hPa Calm     92 % 0 mm
04:40 5.4 °C 4.1 °C 1018.8 hPa Calm     91 % 0 mm
04:44 4.2 °C 3 °C 1018.8 hPa SSW 3.7 km/h 1 km/h 92 % 0 mm
04:45 5.3 °C 3.9 °C 1018.8 hPa Calm     91 % 0 mm
04:49 4.1 °C 2.9 °C 1018.8 hPa Calm     92 % 0 mm
04:50 5.2 °C 3.8 °C 1018.8 hPa Calm     91 % 0 mm
04:54 4 °C 2.8 °C 1018.8 hPa Calm     92 % 0 mm
04:55 5 °C 3.7 °C 1018.8 hPa Calm     91 % 0 mm
04:59 3.8 °C 2.7 °C 1018.8 hPa Calm     92 % 0 mm
05:00 4.9 °C 3.6 °C 1018.8 hPa Calm     91 % 0 mm
05:04 3.7 °C 2.6 °C 1018.8 hPa Calm     92 % 0 mm
05:05 4.8 °C 3.6 °C 1018.8 hPa Calm     92 % 0 mm
05:09 3.7 °C 2.6 °C 1018.8 hPa Calm     92 % 0 mm
05:10 4.7 °C 3.6 °C 1018.8 hPa Calm     92 % 0 mm
05:14 3.7 °C 2.5 °C 1018.8 hPa Calm     92 % 0 mm
05:15 4.6 °C 3.4 °C 1018.8 hPa Calm     92 % 0 mm
05:19 3.7 °C 2.7 °C 1018.8 hPa Calm     93 % 0 mm
05:20 4.6 °C 3.4 °C 1018.8 hPa Calm     92 % 0 mm
05:24 3.7 °C 2.7 °C 1018.8 hPa Calm     93 % 0 mm
05:25 4.4 °C 3.2 °C 1018.8 hPa Calm     92 % 0 mm
05:29 3.6 °C 2.4 °C 1018.8 hPa Calm     92 % 0 mm
05:30 4.3 °C 3.2 °C 1018.8 hPa Calm     92 % 0 mm
05:34 3.4 °C 2.3 °C 1018.8 hPa Calm     92 % 0 mm
05:35 4.3 °C 3.1 °C 1018.8 hPa Calm     92 % 0 mm
05:39 3.3 °C 2.2 °C 1018.8 hPa Calm     92 % 0 mm
05:40 4.2 °C 3.1 °C 1018.8 hPa Calm     92 % 0 mm
05:44 3.2 °C 2.1 °C 1018.8 hPa Calm     92 % 0 mm
05:45 4.2 °C 3 °C 1018.8 hPa Calm     92 % 0 mm
05:49 3.2 °C 2 °C 1019.2 hPa Calm     92 % 0 mm
05:50 4.2 °C 3 °C 1018.8 hPa Calm   3.2 km/h 92 % 0 mm
05:54 3.1 °C 1.9 °C 1019.2 hPa Calm     92 % 0 mm
05:55 4.1 °C 2.9 °C 1018.8 hPa Calm     92 % 0 mm
05:59 2.9 °C 1.9 °C 1019.2 hPa Calm     93 % 0 mm
06:00 3.9 °C 2.8 °C 1018.8 hPa Calm     92 % 0 mm
06:04 2.9 °C 1.9 °C 1019.2 hPa Calm     93 % 0 mm
06:05 3.8 °C 2.6 °C 1018.8 hPa Calm     92 % 0 mm
06:09 2.8 °C 1.8 °C 1018.8 hPa Calm     93 % 0 mm
06:10 3.7 °C 2.6 °C 1018.8 hPa Calm     92 % 0 mm
06:14 2.9 °C 1.9 °C 1018.8 hPa Calm     93 % 0 mm
06:15 3.7 °C 2.5 °C 1018.8 hPa Calm     92 % 0 mm
06:19 2.9 °C 1.9 °C 1018.8 hPa Calm     93 % 0 mm
06:20 3.7 °C 2.5 °C 1018.8 hPa Calm     92 % 0 mm
06:24 2.8 °C 1.8 °C 1018.8 hPa Calm     93 % 0 mm
06:25 3.7 °C 2.7 °C 1018.8 hPa Calm     93 % 0 mm
06:29 2.7 °C 1.7 °C 1018.8 hPa Calm     93 % 0 mm
06:30 3.7 °C 2.7 °C 1018.8 hPa Calm     93 % 0 mm
06:34 2.7 °C 1.7 °C 1018.8 hPa Calm     93 % 0 mm
06:35 3.6 °C 2.4 °C 1018.8 hPa Calm     92 % 0 mm
06:39 2.7 °C 1.7 °C 1018.8 hPa Calm     93 % 0 mm
06:40 3.4 °C 2.2 °C 1018.8 hPa Calm     92 % 0 mm
06:44 2.7 °C 1.7 °C 1018.8 hPa Calm     93 % 0 mm
06:45 3.3 °C 2.3 °C 1018.8 hPa Calm     93 % 0 mm
06:49 2.7 °C 1.7 °C 1018.8 hPa Calm     93 % 0 mm
06:50 3.2 °C 2.1 °C 1018.8 hPa Calm     92 % 0 mm
06:54 2.6 °C 1.6 °C 1019.2 hPa Calm     93 % 0 mm
06:55 3.1 °C 1.9 °C 1019.2 hPa Calm     92 % 0 mm
06:59 2.7 °C 1.7 °C 1019.2 hPa Calm     93 % 0 mm
07:00 3 °C 1.8 °C 1019.2 hPa Calm     92 % 0 mm
07:04 2.7 °C 1.7 °C 1019.5 hPa Calm     93 % 0 mm
07:05 2.9 °C 1.9 °C 1019.2 hPa Calm     93 % 0 mm
07:09 2.8 °C 1.9 °C 1019.5 hPa SSW 1.9 km/h   94 % 0 mm
07:10 2.8 °C 1.8 °C 1018.8 hPa Calm     93 % 0 mm
07:14 2.9 °C 2 °C 1019.2 hPa SSW 1.9 km/h   94 % 0 mm
07:15 2.9 °C 1.9 °C 1018.8 hPa Calm     93 % 0 mm
07:19 3.1 °C 2.2 °C 1019.5 hPa Calm   0.2 km/h 94 % 0 mm
07:20 2.9 °C 1.9 °C 1019.2 hPa Calm     93 % 0 mm
07:24 3.3 °C 2.4 °C 1019.5 hPa Calm     94 % 0 mm
07:25 2.8 °C 1.8 °C 1018.8 hPa Calm     93 % 0 mm
07:29 3.6 °C 2.7 °C 1019.5 hPa Calm     94 % 0 mm
07:30 2.8 °C 1.8 °C 1018.8 hPa Calm     93 % 0 mm
07:34 3.8 °C 2.9 °C 1019.5 hPa Calm     94 % 0 mm
07:35 2.7 °C 1.7 °C 1018.8 hPa Calm     93 % 0 mm
07:39 4.1 °C 3.3 °C 1019.5 hPa Calm     95 % 0 mm
07:40 2.7 °C 1.7 °C 1018.8 hPa Calm     93 % 0 mm
07:44 4.4 °C 3.7 °C 1019.5 hPa Calm     95 % 0 mm
07:45 2.7 °C 1.7 °C 1018.8 hPa Calm     93 % 0 mm
07:49 5.1 °C 4.5 °C 1019.5 hPa Calm     96 % 0 mm
07:50 2.7 °C 1.7 °C 1018.8 hPa Calm     93 % 0 mm
07:54 6.1 °C 5.5 °C 1019.5 hPa Calm     96 % 0 mm
07:55 2.7 °C 1.7 °C 1019.2 hPa Calm     93 % 0 mm
07:59 6.8 °C 6.2 °C 1019.5 hPa Calm     96 % 0 mm
08:00 2.7 °C 1.7 °C 1019.2 hPa Calm     93 % 0 mm
08:04 7.3 °C 6.7 °C 1019.5 hPa Calm     96 % 0 mm
08:05 2.7 °C 1.7 °C 1019.2 hPa Calm     93 % 0 mm
08:09 7.7 °C 7.1 °C 1019.5 hPa Calm     96 % 0 mm
08:10 2.7 °C 1.7 °C 1019.2 hPa Calm     93 % 0 mm
08:14 8.1 °C 7.3 °C 1019.5 hPa SSW 3.7 km/h   95 % 0 mm
08:15 2.8 °C 1.9 °C 1019.5 hPa Calm   1.6 km/h 94 % 0 mm
08:19 8.1 °C 7.2 °C 1019.5 hPa SSW 5.6 km/h 3.2 km/h 94 % 0 mm
08:20 2.9 °C 2.1 °C 1019.5 hPa Calm   1.6 km/h 94 % 0 mm
08:24 8.3 °C 7.4 °C 1019.9 hPa SSW 1.9 km/h   94 % 0 mm
08:25 3.2 °C 2.3 °C 1019.5 hPa Calm   3.2 km/h 94 % 0 mm
08:29 8.7 °C 7.8 °C 1019.9 hPa SSW 5.6 km/h 2.6 km/h 94 % 0 mm
08:30 3.4 °C 2.6 °C 1019.5 hPa Calm     94 % 0 mm
08:34 9.1 °C 8.2 °C 1019.9 hPa SSW 3.2 km/h 2.4 km/h 94 % 0 mm
08:35 3.6 °C 2.7 °C 1019.5 hPa Calm     94 % 0 mm
08:39 9.5 °C 8.4 °C 1019.9 hPa Calm     93 % 0 mm
08:40 3.9 °C 3.2 °C 1019.5 hPa Calm     95 % 0 mm
08:44 9.5 °C 8.3 °C 1019.9 hPa Calm     92 % 0 mm
08:45 4.2 °C 3.4 °C 1019.5 hPa Calm     95 % 0 mm
08:49 9.8 °C 8.4 °C 1019.9 hPa Calm   0.3 km/h 91 % 0 mm
08:50 4.6 °C 3.9 °C 1019.5 hPa Calm     95 % 0 mm
08:54 10.3 °C 8.9 °C 1020.2 hPa SSW 3.7 km/h 2.4 km/h 91 % 0 mm
08:55 5.5 °C 4.9 °C 1019.5 hPa Calm     96 % 0 mm
08:59 10.7 °C 8.8 °C 1020.2 hPa SSW 1.9 km/h 0.3 km/h 88 % 0 mm
09:00 6.4 °C 5.8 °C 1019.5 hPa Calm     96 % 0 mm
09:04 11.2 °C 9.3 °C 1020.2 hPa SSW 5.6 km/h 1.6 km/h 88 % 0 mm
09:05 7 °C 6.4 °C 1019.5 hPa Calm     96 % 0 mm
09:09 11.4 °C 8.9 °C 1020.2 hPa SSW 3.7 km/h 1.4 km/h 85 % 0 mm
09:10 7.4 °C 6.8 °C 1019.5 hPa Calm     96 % 0 mm
09:14 11.7 °C 8.9 °C 1020.2 hPa SSW 3.7 km/h 2.1 km/h 83 % 0 mm
09:15 7.9 °C 7.2 °C 1019.5 hPa Calm     95 % 0 mm
09:19 12.1 °C 8.9 °C 1020.2 hPa SSW 3.7 km/h 1 km/h 81 % 0 mm
09:20 8.1 °C 7.2 °C 1019.5 hPa Calm   3.2 km/h 94 % 0 mm
09:24 12.4 °C 8.7 °C 1020.2 hPa SSW 5.6 km/h 3.5 km/h 78 % 0 mm
09:25 8.2 °C 7.3 °C 1019.5 hPa SSW 1.6 km/h 4.8 km/h 94 % 0 mm
09:29 12.5 °C 8.6 °C 1020.2 hPa SSW 3.2 km/h 1.1 km/h 77 % 0 mm
09:30 8.4 °C 7.6 °C 1019.9 hPa SSW 1.6 km/h 3.2 km/h 94 % 0 mm
09:34 12.8 °C 9.1 °C 1020.2 hPa SSW 3.7 km/h 2.6 km/h 78 % 0 mm
09:35 8.8 °C 7.9 °C 1019.9 hPa SSW 1.6 km/h 4.8 km/h 94 % 0 mm
09:39 13.1 °C 8.6 °C 1020.2 hPa SSW 6.4 km/h 5.6 km/h 74 % 0 mm
09:40 9.3 °C 8.4 °C 1019.9 hPa SSW 3.2 km/h 4.8 km/h 94 % 0 mm
09:44 12.8 °C 7.9 °C 1020.2 hPa SSW 9.3 km/h 6.9 km/h 72 % 0 mm
09:45 9.4 °C 8.1 °C 1019.9 hPa Calm   1.6 km/h 91 % 0 mm
09:49 12.5 °C 7.8 °C 1020.2 hPa SSW 5.6 km/h 2.9 km/h 73 % 0 mm
09:50 9.6 °C 8.2 °C 1019.9 hPa Calm     91 % 0 mm
09:54 12.4 °C 7.7 °C 1020.2 hPa SSW 7.4 km/h 4.2 km/h 73 % 0 mm
09:55 9.9 °C 8.6 °C 1020.2 hPa SSW 1.6 km/h 4.8 km/h 91 % 0 mm
09:59 12.3 °C 7.8 °C 1020.2 hPa SSW 7.4 km/h 4.2 km/h 74 % 0 mm
10:00 10.5 °C 8.9 °C 1020.2 hPa SSW 1.6 km/h 4.8 km/h 90 % 0 mm
10:04 12.2 °C 7.7 °C 1020.2 hPa SSW 6.4 km/h 3.1 km/h 74 % 0 mm
10:05 10.8 °C 8.9 °C 1020.2 hPa SSW 1.6 km/h 4.8 km/h 88 % 0 mm
10:09 12.4 °C 7.3 °C 1020.2 hPa SSW 5.6 km/h 1.1 km/h 71 % 0 mm
10:10 11.2 °C 8.9 °C 1020.2 hPa SSW 1.6 km/h 6.4 km/h 86 % 0 mm
10:14 12.7 °C 7.4 °C 1020.2 hPa SSW 11.3 km/h 7.6 km/h 70 % 0 mm
10:15 11.6 °C 9.1 °C 1020.2 hPa Calm   4.8 km/h 85 % 0 mm
10:19 12.8 °C 7.2 °C 1020.2 hPa SSW 5.6 km/h 3.2 km/h 69 % 0 mm
10:20 11.8 °C 9.1 °C 1020.2 hPa Calm   3.2 km/h 83 % 0 mm
10:24 12.9 °C 7.2 °C 1019.9 hPa SSW 3.7 km/h 1.9 km/h 68 % 0 mm
10:25 12.2 °C 8.8 °C 1020.2 hPa SSW 1.6 km/h 3.2 km/h 80 % 0 mm
10:29 13.5 °C 7.7 °C 1019.9 hPa SSW 6.4 km/h 3.5 km/h 68 % 0 mm
10:30 12.4 °C 8.4 °C 1020.2 hPa SSW 1.6 km/h 6.4 km/h 77 % 0 mm
10:34 14.1 °C 7.8 °C 1019.9 hPa SSW 11.1 km/h 5.5 km/h 66 % 0 mm
10:35 12.6 °C 8.6 °C 1020.2 hPa Calm   4.8 km/h 77 % 0 mm
10:39 14.2 °C 8.1 °C 1019.9 hPa SSW 3.7 km/h 1.9 km/h 67 % 0 mm
10:40 13.1 °C 8.7 °C 1020.2 hPa SSW 4.8 km/h 9.7 km/h 75 % 0 mm
10:44 13.9 °C 7 °C 1019.9 hPa SSW 7.4 km/h 3.1 km/h 63 % 0 mm
10:45 13.1 °C 8.2 °C 1020.2 hPa SSW 8 km/h 9.7 km/h 72 % 0 mm
10:49 13.8 °C 7.3 °C 1019.9 hPa SSW 7.4 km/h 6.9 km/h 65 % 0 mm
10:50 12.7 °C 7.9 °C 1020.2 hPa SSW 4.8 km/h 9.7 km/h 73 % 0 mm
10:54 13.9 °C 6.9 °C 1019.9 hPa SSW 3.7 km/h 1.8 km/h 63 % 0 mm
10:55 12.4 °C 7.9 °C 1020.5 hPa SSW 4.8 km/h 6.4 km/h 74 % 0 mm
10:59 14.2 °C 7.1 °C 1019.9 hPa SSW 3.7 km/h 0.5 km/h 62 % 0 mm
11:00 12.3 °C 7.8 °C 1020.2 hPa SSW 4.8 km/h 9.7 km/h 74 % 0 mm
11:04 14.6 °C 7.2 °C 1019.9 hPa SSW 7.4 km/h 4.5 km/h 61 % 0 mm
11:05 12.2 °C 7.7 °C 1020.2 hPa SSW 4.8 km/h 8 km/h 74 % 0 mm
11:09 14.8 °C 7.3 °C 1019.9 hPa SSW 5.6 km/h 5 km/h 61 % 0 mm
11:14 14.8 °C 7.3 °C 1019.9 hPa SSW 5.6 km/h 4 km/h 61 % 0 mm
11:19 14.4 °C 6.8 °C 1019.9 hPa SSW 16.1 km/h 9 km/h 60 % 0 mm
11:24 14.1 °C 6.7 °C 1019.9 hPa SSW 11.1 km/h 2.6 km/h 61 % 0 mm
11:29 14.4 °C 7.2 °C 1019.5 hPa SSW 5.6 km/h 4.3 km/h 62 % 0 mm
11:34 14.8 °C 6.8 °C 1019.5 hPa SSW 5.6 km/h 4 km/h 59 % 0 mm
11:39 14.9 °C 7.7 °C 1019.5 hPa SSW 13 km/h 5.8 km/h 62 % 0 mm
11:44 14.7 °C 6.7 °C 1019.5 hPa SW 13 km/h 6.8 km/h 59 % 0 mm
11:49 14.7 °C 6.5 °C 1019.5 hPa SW 11.1 km/h 4.3 km/h 58 % 0 mm
11:54 14.9 °C 6.7 °C 1019.5 hPa SW 11.1 km/h 7.4 km/h 58 % 0 mm
11:59 15.2 °C 7.3 °C 1019.5 hPa SW 8 km/h 6.8 km/h 59 % 0 mm
12:04 15.7 °C 7.2 °C 1019.5 hPa WSW 11.1 km/h 8.4 km/h 57 % 0 mm
12:09 15.7 °C 6.9 °C 1019.2 hPa WSW 9.3 km/h 6.6 km/h 56 % 0 mm
12:14 15.9 °C 7.1 °C 1019.2 hPa WSW 9.7 km/h 10.9 km/h 56 % 0 mm
12:19 15.7 °C 7.2 °C 1019.2 hPa WSW 9.3 km/h 4.3 km/h 57 % 0 mm
12:24 15.6 °C 6.6 °C 1019.2 hPa SW 9.3 km/h 4.8 km/h 55 % 0 mm
12:29 15.9 °C 6.8 °C 1018.8 hPa SW 5.6 km/h 1.4 km/h 55 % 0 mm
12:34 16.1 °C 6.8 °C 1018.8 hPa WSW 6.4 km/h 3.7 km/h 54 % 0 mm
12:39 16.1 °C 7.1 °C 1018.8 hPa WSW 7.4 km/h 3.7 km/h 55 % 0 mm
12:44 16.4 °C 6.8 °C 1018.8 hPa WSW 3.7 km/h 3.1 km/h 53 % 0 mm
12:49 16.5 °C 7.2 °C 1018.8 hPa WSW 8 km/h 4.5 km/h 54 % 0 mm
12:54 16.4 °C 7.4 °C 1018.5 hPa SSW 14.8 km/h 10.8 km/h 55 % 0 mm
12:59 15.8 °C 6.8 °C 1018.5 hPa SSW 13 km/h 6.8 km/h 55 % 0 mm
13:04 15.6 °C 7.1 °C 1018.5 hPa SSW 14.8 km/h 11.7 km/h 57 % 0 mm
13:09 15.7 °C 6.9 °C 1018.5 hPa SSW 6.4 km/h 7.1 km/h 56 % 0 mm
13:14 16.1 °C 7.6 °C 1018.2 hPa SSW 11.1 km/h 8 km/h 57 % 0 mm
14:04 17.3 °C 7.1 °C 1017.5 hPa South 13 km/h 9 km/h 51 % 0 mm
14:09 17.2 °C 7.5 °C 1017.5 hPa SSE 7.4 km/h 7.1 km/h 53 % 0 mm
14:14 17.6 °C 7.3 °C 1017.5 hPa SSE 9.3 km/h 6.6 km/h 51 % 0 mm
14:19 17.8 °C 7.3 °C 1017.5 hPa SSE 9.7 km/h 9.3 km/h 50 % 0 mm
14:24 17.6 °C 6.7 °C 1017.5 hPa SSE 11.1 km/h 6.9 km/h 49 % 0 mm
14:29 17.4 °C 7.2 °C 1017.2 hPa SSE 11.3 km/h 9.8 km/h 51 % 0 mm
14:34 17.3 °C 7.1 °C 1017.2 hPa SSE 9.3 km/h 3.5 km/h 51 % 0 mm
14:39 17.3 °C 7.1 °C 1017.2 hPa SSE 13 km/h 11.3 km/h 51 % 0 mm
14:44 17.6 °C 7.3 °C 1017.2 hPa SSE 13 km/h 3.1 km/h 51 % 0 mm
14:49 17.7 °C 7.1 °C 1017.2 hPa SSE 14.8 km/h 8.2 km/h 50 % 0 mm
14:52 17.7 °C 6.9 °C 1017.2 hPa SSE 7.4 km/h 4.2 km/h 49 % 0 mm
15:24 17.4 °C 7.2 °C 1016.5 hPa SSE 7.4 km/h 8.5 km/h 51 % 0 mm
15:29 17.7 °C 7.4 °C 1016.5 hPa SSE 7.4 km/h 7.2 km/h 51 % 0 mm
15:34 17.9 °C 7.3 °C 1016.5 hPa SSE 7.4 km/h 8 km/h 50 % 0 mm
15:39 18.1 °C 7.2 °C 1016.5 hPa SSE 6.4 km/h 4.2 km/h 49 % 0 mm
15:44 18.2 °C 7.3 °C 1016.1 hPa SSE 14.8 km/h 12.1 km/h 49 % 0 mm
15:49 17.9 °C 7.1 °C 1016.1 hPa SSE 11.1 km/h 7.9 km/h 49 % 0 mm
15:54 17.6 °C 7.1 °C 1016.1 hPa SSE 13 km/h 4.7 km/h 50 % 0 mm
15:59 17.9 °C 7.6 °C 1015.8 hPa SSE 12.9 km/h 7.7 km/h 51 % 0 mm
16:04 18.3 °C 7.1 °C 1015.8 hPa SSE 16.7 km/h 7.9 km/h 48 % 0 mm
16:09 18.4 °C 7.5 °C 1015.8 hPa South 11.1 km/h 7.7 km/h 49 % 0 mm
16:14 18.6 °C 7.7 °C 1015.8 hPa SSE 14.8 km/h 10.3 km/h 49 % 0 mm
16:19 18.6 °C 7.3 °C 1015.5 hPa SSE 14.8 km/h 7.9 km/h 48 % 0 mm
16:24 18.4 °C 7.2 °C 1015.5 hPa SSE 14.8 km/h 6.8 km/h 48 % 0 mm
16:29 18.1 °C 7.2 °C 1015.5 hPa SSE 6.4 km/h 2.6 km/h 49 % 0 mm
16:34 18.5 °C 7.6 °C 1015.5 hPa SSE 6.4 km/h 3.1 km/h 49 % 0 mm
16:39 18.8 °C 7.3 °C 1015.5 hPa SSE 11.3 km/h 10.9 km/h 47 % 0 mm
16:44 18.9 °C 7.9 °C 1015.8 hPa SSE 7.4 km/h 6.4 km/h 49 % 0 mm
16:49 18.7 °C 7.2 °C 1015.5 hPa SSE 13 km/h 6 km/h 47 % 0 mm
16:54 18.5 °C 6.9 °C 1015.5 hPa SSE 1.9 km/h 1 km/h 47 % 0 mm
16:59 18.8 °C 7.8 °C 1015.5 hPa SSE 9.3 km/h 5.8 km/h 49 % 0 mm
17:04 18.8 °C 7.6 °C 1015.1 hPa SSE 14.8 km/h 10.5 km/h 48 % 0 mm
17:09 19 °C 7.4 °C 1015.5 hPa SSE 6.4 km/h 1.1 km/h 47 % 0 mm
17:14 19 °C 7.1 °C 1015.5 hPa SSE 13 km/h 8.5 km/h 46 % 0 mm
17:19 18.4 °C 7.2 °C 1015.5 hPa SSE 9.3 km/h 7.4 km/h 48 % 0 mm
17:24 18.1 °C 6.9 °C 1015.5 hPa Calm   0.2 km/h 48 % 0 mm
17:29 17.9 °C 7.4 °C 1015.5 hPa SSE 1.6 km/h   50 % 0 mm
17:34 17.9 °C 7 °C 1015.5 hPa SSE 6.4 km/h 2.3 km/h 49 % 0 mm
17:39 17.8 °C 7.2 °C 1015.1 hPa SSE 5.6 km/h 5 km/h 50 % 0 mm
17:44 17.7 °C 7.4 °C 1015.1 hPa SSE 3.7 km/h 1.8 km/h 51 % 0 mm
17:49 17.8 °C 7.3 °C 1015.1 hPa SSE 3.7 km/h 2.1 km/h 50 % 0 mm
17:54 18.1 °C 7.5 °C 1015.1 hPa SSE 9.3 km/h 7.2 km/h 50 % 0 mm
17:59 18.1 °C 7.5 °C 1015.1 hPa SSE 9.3 km/h 6.4 km/h 50 % 0 mm
18:04 18.2 °C 7.6 °C 1015.1 hPa SSE 9.7 km/h 9 km/h 50 % 0 mm
18:09 18.3 °C 7.4 °C 1015.1 hPa SSE 7.4 km/h 5.5 km/h 49 % 0 mm
18:14 18.4 °C 7.2 °C 1015.1 hPa SSE 1.9 km/h 0.8 km/h 48 % 0 mm
18:19 18.4 °C 7.5 °C 1015.1 hPa SSE 6.4 km/h 4.8 km/h 49 % 0 mm
18:24 18.3 °C 7.4 °C 1015.1 hPa SSE 3.7 km/h   49 % 0 mm
18:29 18.3 °C 7.4 °C 1014.8 hPa SSE 7.4 km/h 3.2 km/h 49 % 0 mm
18:34 18.3 °C 7.4 °C 1015.1 hPa SSE 3.7 km/h 2.1 km/h 49 % 0 mm
18:39 18.5 °C 7.3 °C 1015.1 hPa SSE 3.7 km/h 1.1 km/h 48 % 0 mm
18:44 18.6 °C 7.4 °C 1015.1 hPa SSE 5.6 km/h 2.1 km/h 48 % 0 mm
18:49 18.7 °C 7.7 °C 1015.1 hPa SSE 6.4 km/h 5.6 km/h 49 % 0 mm
18:54 18.4 °C 7.2 °C 1015.1 hPa SSE 5.6 km/h 2.7 km/h 48 % 0 mm
18:59 18.3 °C 7.7 °C 1015.1 hPa SSE 6.4 km/h 3.9 km/h 50 % 0 mm
19:04 18.3 °C 7.7 °C 1015.1 hPa SSE 3.7 km/h 1.4 km/h 50 % 0 mm
19:09 18.2 °C 7.6 °C 1015.1 hPa SSE 5.6 km/h 2.3 km/h 50 % 0 mm
19:14 18 °C 7.7 °C 1015.1 hPa SSE 5.6 km/h 1 km/h 51 % 0 mm
19:19 17.9 °C 7.9 °C 1015.1 hPa SSE 3.7 km/h 1.8 km/h 52 % 0 mm
19:24 17.7 °C 7.9 °C 1015.1 hPa SSE 5.6 km/h 1 km/h 53 % 0 mm
19:29 17.5 °C 7.8 °C 1015.1 hPa SSE 3.2 km/h 0.6 km/h 53 % 0 mm
19:34 17.4 °C 8.3 °C 1015.1 hPa SSE 3.7 km/h 2.3 km/h 55 % 0 mm
19:39 17.1 °C 8 °C 1015.1 hPa SSE 3.7 km/h 1.8 km/h 55 % 0 mm
19:44 16.8 °C 8 °C 1015.1 hPa SSE 1.9 km/h 0.5 km/h 56 % 0 mm
19:49 16.6 °C 8.3 °C 1015.5 hPa Calm     58 % 0 mm
19:54 16.2 °C 8.2 °C 1015.5 hPa SSE 5.6 km/h 2.7 km/h 59 % 0 mm
19:59 15.7 °C 8.2 °C 1015.5 hPa Calm     61 % 0 mm
20:04 15.3 °C 8.1 °C 1015.5 hPa SSE 3.7 km/h 2.6 km/h 62 % 0 mm
20:09 14.9 °C 8.2 °C 1015.5 hPa Calm     64 % 0 mm
20:14 14.7 °C 8.2 °C 1015.5 hPa Calm     65 % 0 mm
20:19 14.3 °C 8.1 °C 1015.5 hPa Calm     66 % 0 mm
20:24 14 °C 7.9 °C 1015.5 hPa Calm     67 % 0 mm
20:29 13.5 °C 7.9 °C 1015.5 hPa SSE 1.9 km/h   69 % 0 mm
20:34 13.2 °C 7.9 °C 1015.5 hPa SSE 1.9 km/h   70 % 0 mm
20:39 13 °C 7.9 °C 1015.5 hPa Calm     71 % 0 mm
20:44 12.8 °C 7.7 °C 1015.5 hPa Calm     71 % 0 mm
20:49 12.7 °C 7.8 °C 1015.5 hPa SSE 1.9 km/h   72 % 0 mm
20:54 12.6 °C 7.7 °C 1015.5 hPa Calm     72 % 0 mm
20:59 12.5 °C 7.6 °C 1015.8 hPa Calm     72 % 0 mm
21:04 12.4 °C 7.6 °C 1015.8 hPa Calm     72 % 0 mm
21:09 12.3 °C 7.6 °C 1015.5 hPa Calm     73 % 0 mm
21:14 12.1 °C 7.2 °C 1015.8 hPa Calm     72 % 0 mm
21:18 11.9 °C 7.3 °C 1015.5 hPa Calm     73 % 0 mm
21:24 11.8 °C 7.3 °C 1015.8 hPa Calm     74 % 0 mm
21:29 11.8 °C 7.5 °C 1015.8 hPa Calm     75 % 0 mm
21:34 11.6 °C 7.3 °C 1015.8 hPa SSE 3.7 km/h 2.4 km/h 75 % 0 mm
21:39 11.4 °C 7.2 °C 1015.8 hPa SSE 1.9 km/h   75 % 0 mm
21:44 11.3 °C 7.2 °C 1015.8 hPa SSE 1.9 km/h   76 % 0 mm
21:49 11.2 °C 7.2 °C 1015.8 hPa Calm     76 % 0 mm
21:54 11.2 °C 7.1 °C 1015.8 hPa SSE 3.7 km/h 1.1 km/h 76 % 0 mm
21:59 11.1 °C 7 °C 1015.8 hPa Calm   0.2 km/h 76 % 0 mm
22:04 10.9 °C 7 °C 1015.8 hPa Calm     77 % 0 mm
22:09 10.9 °C 7 °C 1015.8 hPa Calm     77 % 0 mm
22:14 10.8 °C 6.9 °C 1015.8 hPa Calm     77 % 0 mm
22:19 10.8 °C 7.1 °C 1015.8 hPa SSE 1.6 km/h 1.4 km/h 78 % 0 mm
22:24 10.7 °C 6.8 °C 1015.5 hPa SSE 1.6 km/h 1.3 km/h 77 % 0 mm
22:29 10.7 °C 7.2 °C 1015.5 hPa Calm     79 % 0 mm
22:34 10.6 °C 6.9 °C 1015.5 hPa Calm     78 % 0 mm
22:39 10.4 °C 6.7 °C 1015.5 hPa Calm     78 % 0 mm
22:54 9.8 °C 6.3 °C 1015.5 hPa Calm     79 % 0 mm
22:59 9.6 °C 6.3 °C 1015.1 hPa Calm     80 % 0 mm
23:02 9.5 °C 6.4 °C 1015.1 hPa Calm     81 % 0 mm
23:09 9.3 °C 6.4 °C 1015.1 hPa SSE 1.6 km/h   82 % 0 mm
23:14 9.2 °C 6.3 °C 1015.1 hPa Calm     82 % 0 mm
23:19 9 °C 6.3 °C 1015.1 hPa SSE 1.9 km/h   83 % 0 mm
23:24 8.8 °C 6.3 °C 1014.8 hPa Calm     84 % 0 mm
23:29 8.7 °C 6.2 °C 1014.8 hPa Calm     84 % 0 mm
23:34 8.6 °C 6.2 °C 1014.8 hPa Calm     85 % 0 mm
23:39 8.5 °C 6.1 °C 1014.8 hPa Calm     85 % 0 mm
23:44 8.3 °C 5.9 °C 1014.8 hPa Calm     85 % 0 mm
23:49 8.2 °C 6 °C 1014.8 hPa Calm     86 % 0 mm
23:54 8.2 °C 5.9 °C 1014.4 hPa Calm     86 % 0 mm
23:59 8.2 °C 6.1 °C 1014.4 hPa Calm     87 % 0 mm
Ararat Weather
Compliments of Weather Underground - 2.75 mb
Click here to send mail.


ABOUT

Live weather data from Ararat, Victoria, Australia, 3377
Data uploaded from Cumulus every 5 minutes to Weather Underground.
This site then downloads the raw data for formatting and display.
Metric and imperial data can be displayed. Graphs and historical data available.
Includes Sun and Moon times and rain image live from BOM.

Check out Ararat Weather on Facebook, Twitter and Google +

Help support ongoing costs by checking out the ads





Follow @AraratWeather